TimeEDT,TemperatureF,Dew PointF,Humidity,Sea Level PressureIn,VisibilityMPH,Wind Direction,Wind SpeedMPH,Gust SpeedMPH,PrecipitationIn,Events,Conditions,WindDirDegrees,DateUTC
12:15 AM,48.6,26.1,42,30.02,10.0,ENE,11.5,-,N/A,,Clear,60,2014-05-05 04:15:00
12:35 AM,48.9,25.9,41,30.03,10.0,ENE,9.2,-,N/A,,Scattered Clouds,60,2014-05-05 04:35:00
12:55 AM,49.3,25.5,40,30.04,10.0,NE,9.2,-,N/A,,Scattered Clouds,40,2014-05-05 04:55:00
1:15 AM,48.6,27.3,44,30.03,10.0,NE,10.4,-,N/A,,Scattered Clouds,50,2014-05-05 05:15:00
1:35 AM,49.1,27.1,43,30.03,10.0,NE,10.4,-,N/A,,Mostly Cloudy,50,2014-05-05 05:35:00
1:55 AM,49.1,27.9,44,30.02,10.0,ENE,9.2,-,N/A,,Overcast,60,2014-05-05 05:55:00
2:15 AM,48.7,27.7,44,29.99,10.0,East,9.2,-,N/A,,Scattered Clouds,90,2014-05-05 06:15:00
2:35 AM,48.7,28.0,45,29.99,10.0,East,6.9,-,N/A,,Scattered Clouds,80,2014-05-05 06:35:00
2:55 AM,48.7,28.6,46,30.00,10.0,East,5.8,-,N/A,Thunderstorm,Scattered Clouds,90,2014-05-05 06:55:00
3:15 AM,48.4,29.1,47,29.98,10.0,East,9.2,-,N/A,,Mostly Cloudy,100,2014-05-05 07:15:00
3:35 AM,48.4,30.0,49,30.00,10.0,East,4.6,-,N/A,Thunderstorm,Mostly Cloudy,80,2014-05-05 07:35:00
3:55 AM,48.7,30.2,49,29.99,10.0,East,6.9,-,N/A,Thunderstorm,Thunderstorm,100,2014-05-05 07:55:00
4:15 AM,48.2,30.9,51,29.98,10.0,East,5.8,-,N/A,,Mostly Cloudy,90,2014-05-05 08:15:00
4:35 AM,47.3,31.3,54,29.97,10.0,East,5.8,-,N/A,,Scattered Clouds,100,2014-05-05 08:35:00
4:55 AM,46.8,31.8,56,29.96,10.0,East,5.8,-,N/A,,Clear,90,2014-05-05 08:55:00
5:15 AM,46.4,32.0,57,29.96,10.0,East,6.9,-,N/A,,Clear,100,2014-05-05 09:15:00
5:35 AM,46.4,32.0,57,29.96,10.0,East,5.8,-,N/A,Thunderstorm,Clear,90,2014-05-05 09:35:00
5:55 AM,46.6,32.4,58,29.99,10.0,East,6.9,-,N/A,,Clear,90,2014-05-05 09:55:00
6:15 AM,46.4,32.9,59,29.99,10.0,ENE,5.8,-,N/A,,Clear,70,2014-05-05 10:15:00
6:35 AM,45.9,33.4,62,29.99,10.0,East,6.9,-,N/A,,Clear,100,2014-05-05 10:35:00
6:55 AM,46.4,33.8,62,29.98,10.0,ESE,8.1,-,N/A,,Scattered Clouds,110,2014-05-05 10:55:00
7:15 AM,46.4,34.0,62,29.96,10.0,ESE,9.2,-,N/A,,Scattered Clouds,110,2014-05-05 11:15:00
7:35 AM,46.6,34.2,62,29.96,10.0,ESE,10.4,-,N/A,,Scattered Clouds,110,2014-05-05 11:35:00
7:55 AM,47.5,34.0,59,29.97,10.0,ESE,9.2,-,N/A,,Clear,120,2014-05-05 11:55:00
8:15 AM,48.6,33.4,56,29.95,10.0,ESE,12.7,-,N/A,,Clear,120,2014-05-05 12:15:00
8:35 AM,50.0,33.8,54,29.94,10.0,SE,11.5,17.3,N/A,,Clear,130,2014-05-05 12:35:00
8:55 AM,50.7,33.3,51,29.92,10.0,SE,15.0,23.0,N/A,,Clear,140,2014-05-05 12:55:00
9:15 AM,51.8,33.3,49,29.93,10.0,ESE,12.7,17.3,N/A,,Clear,120,2014-05-05 13:15:00
9:35 AM,52.7,33.4,48,29.93,10.0,ESE,10.4,17.3,N/A,,Clear,110,2014-05-05 13:35:00
9:55 AM,53.2,33.1,46,29.92,10.0,SE,10.4,16.1,N/A,,Clear,140,2014-05-05 13:55:00
10:15 AM,54.5,32.9,44,29.93,10.0,ESE,10.4,17.3,N/A,,Clear,120,2014-05-05 14:15:00
10:35 AM,56.3,34.0,43,29.92,10.0,East,10.4,-,N/A,,Clear,100,2014-05-05 14:35:00
10:55 AM,57.7,34.2,41,29.91,10.0,ESE,15.0,18.4,N/A,,Clear,110,2014-05-05 14:55:00
11:15 AM,58.6,34.2,40,29.91,10.0,ESE,15.0,-,N/A,,Clear,110,2014-05-05 15:15:00
11:35 AM,60.3,35.1,39,29.91,10.0,East,10.4,-,N/A,,Clear,100,2014-05-05 15:35:00
11:55 AM,61.2,35.4,38,29.91,10.0,East,11.5,-,N/A,,Clear,100,2014-05-05 15:55:00
12:15 PM,62.1,36.7,39,29.89,7.0,ESE,15.0,-,N/A,,Clear,120,2014-05-05 16:15:00
12:35 PM,62.2,37.2,39,29.90,10.0,East,11.5,17.3,N/A,,Clear,100,2014-05-05 16:35:00
12:55 PM,63.3,36.9,37,29.89,10.0,ESE,11.5,-,N/A,,Clear,110,2014-05-05 16:55:00
1:15 PM,64.4,37.6,37,29.88,10.0,East,9.2,-,N/A,,Clear,100,2014-05-05 17:15:00
1:35 PM,65.7,38.7,37,29.88,10.0,ESE,10.4,-,N/A,,Clear,110,2014-05-05 17:35:00
1:55 PM,66.2,39.2,37,29.87,10.0,East,8.1,-,N/A,,Clear,90,2014-05-05 17:55:00
2:15 PM,66.2,39.2,37,29.87,10.0,East,10.4,-,N/A,,Clear,90,2014-05-05 18:15:00
2:35 PM,66.4,39.9,38,29.88,10.0,East,8.1,-,N/A,,Clear,90,2014-05-05 18:35:00
2:55 PM,66.4,41.4,40,29.87,10.0,East,8.1,-,N/A,,Clear,100,2014-05-05 18:55:00
3:15 PM,66.7,43.2,42,29.87,10.0,ENE,11.5,-,N/A,,Clear,70,2014-05-05 19:15:00
3:35 PM,66.9,42.1,40,29.87,10.0,ENE,10.4,17.3,N/A,,Clear,70,2014-05-05 19:35:00
3:55 PM,66.7,42.3,41,29.86,10.0,ENE,11.5,-,N/A,,Clear,70,2014-05-05 19:55:00
4:15 PM,66.9,42.4,41,29.86,10.0,East,10.4,-,N/A,,Clear,90,2014-05-05 20:15:00
4:35 PM,67.3,42.1,40,29.86,10.0,East,10.4,-,N/A,,Clear,90,2014-05-05 20:35:00
4:55 PM,68.0,42.3,39,29.86,10.0,East,6.9,-,N/A,,Clear,90,2014-05-05 20:55:00
5:15 PM,68.2,41.9,38,29.85,10.0,East,10.4,-,N/A,,Clear,80,2014-05-05 21:15:00
5:35 PM,68.2,42.1,39,29.86,10.0,ENE,8.1,16.1,N/A,,Clear,70,2014-05-05 21:35:00
5:55 PM,69.3,42.8,38,29.86,10.0,East,9.2,-,N/A,,Clear,80,2014-05-05 21:55:00
6:15 PM,67.8,43.0,41,29.85,10.0,ENE,10.4,-,N/A,,Clear,70,2014-05-05 22:15:00
6:35 PM,66.7,42.4,41,29.85,10.0,NE,15.0,-,N/A,,Clear,50,2014-05-05 22:35:00
6:55 PM,66.2,42.3,42,29.85,10.0,ENE,11.5,-,N/A,,Clear,70,2014-05-05 22:55:00
7:15 PM,65.3,42.1,43,29.85,10.0,East,10.4,-,N/A,,Clear,90,2014-05-05 23:15:00
7:35 PM,64.0,42.1,45,29.86,10.0,ENE,6.9,-,N/A,,Clear,60,2014-05-05 23:35:00
7:55 PM,63.5,41.9,45,29.87,10.0,ENE,8.1,-,N/A,,Clear,60,2014-05-05 23:55:00
8:15 PM,62.6,41.4,46,29.87,10.0,ENE,10.4,-,N/A,,Clear,60,2014-05-06 00:15:00
8:35 PM,61.7,41.4,47,29.88,10.0,ENE,9.2,-,N/A,,Clear,70,2014-05-06 00:35:00
8:55 PM,60.4,40.8,48,29.88,10.0,ENE,8.1,-,N/A,,Clear,60,2014-05-06 00:55:00
9:15 PM,59.7,40.1,48,29.88,10.0,ENE,10.4,-,N/A,,Clear,60,2014-05-06 01:15:00
9:35 PM,59.0,40.1,50,29.89,10.0,NE,9.2,-,N/A,,Clear,50,2014-05-06 01:35:00
9:55 PM,58.1,40.1,51,29.90,10.0,NE,10.4,-,N/A,,Clear,50,2014-05-06 01:55:00
10:15 PM,57.4,39.0,50,29.90,10.0,ENE,9.2,18.4,N/A,,Clear,60,2014-05-06 02:15:00
10:35 PM,56.3,38.3,51,29.91,10.0,ENE,11.5,-,N/A,,Clear,60,2014-05-06 02:35:00
10:55 PM,55.8,37.4,50,29.91,10.0,ENE,10.4,-,N/A,,Clear,60,2014-05-06 02:55:00
11:15 PM,54.7,37.0,51,29.91,10.0,ENE,10.4,-,N/A,,Clear,70,2014-05-06 03:15:00
11:35 PM,54.5,36.7,51,29.91,10.0,ENE,6.9,-,N/A,,Clear,70,2014-05-06 03:35:00
11:55 PM,53.8,36.5,52,29.91,10.0,ENE,8.1,-,N/A,,Clear,70,2014-05-06 03:55:00